Zurück zum Katalog

STARLINK-34147

AktivKommunikationVLEO
NORAD 63965·PAYLOAD·🇺🇸 United States

Gestartet May 13, 2025 von Cape Canaveral Space Force Station

Loading…

Nächste Überflüge (nächste 24 Stunden)

TLE

AktuellSource: CelesTrak SupGP

Epoche: Sep 15, 2026, 03:50 UTC

1 63965C 25099P   26258.16020833 -.00020257  00000+0 -73391-3 0  2581
2 63965  43.0002 186.0040 0001347 270.3149 156.8028 15.27580147    11

Verfolge STARLINK-34147 in Echtzeit mit AllMySat

Download on the App Store